Regional Weather Roundup
Issued by NWS

Home | Current Version | Previous Version | Graphics & Text | Print | Product List | Glossary On
Versions: 1 2 3 4 5 6 7 8 9 10 11 12 13 14 15 16 17 18 19 20 21 22 23 24 25 26 27 28 29 30 31 32 33 34 35 36 37 38 39 40 41 42 43 44 45 46 47 48 49 50
000
ASUS43 KFSD 231302
RWRSD

WEATHER ROUNDUP FOR SOUTH DAKOTA
NATIONAL WEATHER SERVICE SIOUX FALLS SD
800 AM CDT SUN JUL 23 2017

NOTE: "FAIR" INDICATES FEW OR NO CLOUDS BELOW 12,000 FEET WITH NO
SIGNIFICANT WEATHER AND/OR OBSTRUCTIONS TO VISIBILITY.


SDZ001>005-009-010-012>017-231400-
NORTHWEST AND NORTH CENTRAL SOUTH DAKOTA

CITY           SKY/WX    TMP DP  RH WIND       PRES   REMARKS
BUFFALO          N/A     64  50  60 CALM      30.05S
FAITH            N/A     62  50  64 CALM      30.10R
MOBRIDGE       SUNNY     65  60  84 NW5       30.05R
$$

SDZ012>016-024>037-041>051-057-063-072>074-231400-
SOUTHWEST AND SOUTH CENTRAL SOUTH DAKOTA

CITY           SKY/WX    TMP DP  RH WIND       PRES   REMARKS
RAPID CTY ARPT SUNNY     66  49  54 CALM      30.12R
PIERRE         SUNNY     66  54  65 N3        30.05R
CUSTER         SUNNY     59  39  47 N5        30.24R
ELLSWORTH AFB  SUNNY     64  48  55 CALM      30.12R
PHILIP         SUNNY     59  49  69 W3        30.08R
PINE RIDGE     SUNNY     62  54  74 CALM      30.11R
SPEARFISH      FAIR      63  45  51 CALM      30.15R
WINNER         FAIR      64  52  64 W3        30.06R
$$

SDZ004>011-016>023-039-040-231400-
NORTHEAST SOUTH DAKOTA

CITY           SKY/WX    TMP DP  RH WIND       PRES   REMARKS
ABERDEEN       SUNNY     64  59  83 NW8       30.03R
WATERTOWN      SUNNY     65  61  87 NW10      30.00R
BROOKINGS      MOSUNNY   65  60  84 NW9       29.99S
SISSETON         N/A     64  60  87 NW15G22   29.98R
$$

SDZ017-020-022-023-036>040-048>070-231400-
SOUTHEAST SOUTH DAKOTA

CITY           SKY/WX    TMP DP  RH WIND       PRES   REMARKS
SIOUX FALLS    MOSUNNY   69  61  75 CALM      29.99R
HURON          SUNNY     64  61  90 N9        30.01R
CHAMBERLAIN    SUNNY     69  59  69 N3        30.04S
MITCHELL       SUNNY     65  61  87 N5        30.01R
YANKTON        SUNNY     69  63  81 NW8       30.00R
$$

ABBREVIATIONS USED IN REMARKS
   TC - TEMPERATURE IN CELSIUS
  WCI - WIND CHILL INDEX
   HX - HEAT INDEX
  VSB - VISIBILITY





USA.gov is the U.S. government's official web portal to all federal, state and local government web resources and services.